THORAD AGENA D DEB *, 5387

Orbit data source: Space-Track

THORAD AGENA D DEB *, 5387 is space debris in SSO originally from a launch on Wed, 08 Apr 1970 UTC launched from the Air Force Western Test Range (AFWTR). Debris objects in space refer to the collection of defunct objects orbiting the Earth. Examples of debris include non-operational satellites, rocket bodies, and fragments generated from explosions, collisions, or faulty payload assembly.

Loading next visibility...
Identifier
5387, 1970-025KS
Orbit
SSO
Country
Flag of USUS
Related business
Manufacturer
Unknown
Mission
Spacecraft
Bus & Motor
Unknown
Mass
Unknown
Launch date (UTC)
1970-04-08 (56 years ago)
Launch vehicle
Unknown
Launch site
Air Force Western Test Range (AFWTR)
Object type
Payload
Rocket body
Debris
Shape & HBR
Unknown shape, 0.1 m
Radar Cross Section
Small (<0.1 m²)

Expand to show TLE details & history
Last TLE update: 7 months ago

TLE from 7 months ago
0 THORAD AGENA D DEB *
1 05387U 70025KS  25085.16238895  .00001682  00000-0  85011-2 0  9993
2 05387 101.0755 235.5609 0686078 118.3035  53.4649 12.14861601268153
Epoch: 2025-03-26T03:53Z
TLE epoch observation values (Epoch: 2025-03-26T03:53:50.405Z)
Latitude
1.46295°
Longitude
173.53187°
Altitude
1,316.669 km
Speed
7.333 km/s
True Right ascension
03h 43m 23s
True Declination
1° 27' 17"
Sunlit
Object was in daylight at epoch
Visualization orbit readout
Latitude
Unknown
Longitude
Unknown
Altitude
Unknown
Speed
Unknown
Apparent Right ascension
Unknown
Apparent Declination
Unknown
Sunlit
N/A
Visualization observer readout
Local Sidereal Time
23:39:29
Azimuth
Unknown
Elevation
Unknown
Doppler factor
Unknown
Orbital elements
Apogee altitude
2,160.762 km
Perigee altitude
1,064.316 km
Semi-major axis
7,990.676 km
Eccentricity
0.06861
Inclination
101.0755°
RAAN
235.5609°
Arg. of periapsis
118.3035°
True anomaly
60.10594°
Mean anomaly
53.4649°
Eccentric anomaly
56.75238°
Mean motion
3.03856 °/min
Orbital period
118.48 mins
BSTAR
0.0085011
Loading maneuver chart data...
Computing Atmospheric mass density...

Documentation

Showing up to 5 results
|